Regional Weather Roundup
Issued by NWS

Home | Current Version | Previous Version | Text Only | Print | Product List | Glossary Off
Versions: 1 2 3 4 5 6 7 8 9 10 11 12 13 14 15 16 17 18 19 20 21 22 23 24 25 26 27 28 29 30 31 32 33 34 35 36 37 38 39 40 41 42 43 44 45 46 47 48 49 50

000
ASUS43 KDMX 171706
RWRIA

WEATHER ROUNDUP FOR IOWA
NATIONAL WEATHER SERVICE DES MOINES IA
1200 PM CDT THU AUG 17 2017

NOTE: "FAIR" INDICATES FEW OR NO CLOUDS BELOW 12,000 FEET WITH NO
SIGNIFICANT WEATHER AND/OR OBSTRUCTIONS TO VISIBILITY.

* - THESE STATIONS ARE NOT NWS STATIONS...THUS NOT UNDER NWS
QUALITY CONTROL.  THEY ALSO DO NOT REPORT WEATHER SUCH
AS PRECIPITATION OR FOG.

IAZ001>003-012>014-020>022-031>034-043>046-171800-
   NORTHWEST IOWA

CITY           SKY/WX    TMP DP  RH WIND       PRES   REMARKS
CARROLL *      PTSUNNY   73  64  73 NW18G25   29.86S
CHEROKEE *     PTSUNNY   71  63  74 W17       29.88R
DENISON *      SUNNY     73  61  64 NW15G25   29.90S
LE MARS *      SUNNY     73  61  64 NW16G23   29.89S
ORANGE CITY *  SUNNY     72  64  78 NW14G23   29.89S
SHELDON *      PTSUNNY   70  63  78 NW13G22   29.87S
SIOUX CITY     SUNNY     75  61  61 NW20G26   29.90R
SPENCER        CLOUDY    70  61  73 NW18G28   29.85S
STORM LAKE *     N/A     68  63  83 NW15G24   29.88R
$$

IAZ055>058-069>071-079>083-090>094-171800-
   SOUTHWEST IOWA

CITY           SKY/WX    TMP DP  RH WIND       PRES   REMARKS
ATLANTIC *     SUNNY     75  63  64 NW16G23   29.90R
AUDUBON *      SUNNY     73  63  68 NW14G21   29.89S
CLARINDA *     SUNNY     77  63  61 NW15G23   29.95R
COUNCIL BLFS * MOSUNNY   75  63  64 NW8G23    29.93R
CRESTON *      SUNNY     75  61  60 W15G25    29.91S
HARLAN  *      SUNNY     73  63  68 NW22G29   29.93S
LAMONI         PTSUNNY   75  62  64 W16       29.91R
RED OAK *      PTSUNNY   75  61  60 W17G25    29.93R
SHENANDOAH *   SUNNY     77  63  61 NW10G16   29.94S
$$

IAZ047>049-059>061-072>074-084-171800-
   CENTRAL IOWA

CITY           SKY/WX    TMP DP  RH WIND       PRES   REMARKS
AMES           MOSUNNY   73  66  78 W18G24    29.83R
ANKENY *       CLOUDY    73  63  68 W16G24    29.85R
BOONE *        CLOUDY    72  63  73 W17G24    29.83R
CHARITON *     CLOUDY    73  63  68 W15G22    29.88R
DES MOINES     CLOUDY    73  62  68 W14       29.85R
GRINNELL*      CLOUDY    72  63  74 W15G23    29.84R
KNOXVILLE *    CLOUDY    73  63  68 W13G20    29.85R
MARSHALLTOWN   CLOUDY    74  65  73 W18G26    29.80R
NEWTON *       CLOUDY    72  64  78 W16G25    29.84R
PELLA *        CLOUDY    73  63  69 W13G20    29.86R
PERRY *          N/A     74  66  76 W15       29.86R
$$

IAZ004>006-015-016-023>025-035-036-171800-
   NORTH CENTRAL IOWA

CITY           SKY/WX    TMP DP  RH WIND       PRES   REMARKS
ALGONA *       CLOUDY    70  64  83 NW17G25   29.83R
CLARION *      CLOUDY    70  66  88 NW18G26   29.82R
ESTHERVILLE    CLOUDY    66  62  87 NW18G29   29.83R
FORT DODGE *   CLOUDY    70  61  73 W14G20    29.85R
MASON CITY     CLOUDY    72  63  73 W23G31    29.78R
FOREST CITY *  CLOUDY    72  63  73 W21G30    29.78R
WEBSTER CITY * CLOUDY    72  64  78 NW14G24   29.81R
IOWA FALLS *   PTSUNNY   74  64  72 W21G29    29.81S
$$

IAZ007>011-017>019-026>030-037>042-050>054-066-171800-
   NORTHEAST IOWA

CITY           SKY/WX    TMP DP  RH WIND       PRES   REMARKS
CEDAR RAPIDS   CLOUDY    75  65  70 W14       29.78R
CHARLES CITY * CLOUDY    70  66  88 W17G28    29.74R
CLINTON *      CLOUDY    75  67  76 SW20G25   29.77S
DECORAH *      PTSUNNY   68  64  88 W14G26    29.69R
DUBUQUE        PTSUNNY   72  65  78 SW22      29.74S
MONTICELLO *   CLOUDY    75  66  73 W12G22    29.75S
OELWEIN *      PTSUNNY   73  68  83 W21G30    29.75R
WATERLOO       PTSUNNY   74  63  68 W21G30    29.75R
$$

IAZ064-065-067-068-078-171800-
   EAST CENTRAL IOWA

CITY           SKY/WX    TMP DP  RH WIND       PRES   REMARKS
DAVENPORT      CLOUDY    75  65  70 W16G26    29.80F
IOWA CITY      CLOUDY    77  66  68 W15       29.81S
MT. PLEASANT * SUNNY     80  63  57 W13       29.82F HX  81
MUSCATINE *    PTSUNNY   79  64  61 W18       29.80F HX  81
QUAD CITIES    CLOUDY    77  64  64 W22G29    29.78F
$$

IAZ062-063-075>077-085>089-095>099-171800-
   SOUTHEAST IOWA

CITY           SKY/WX    TMP DP  RH WIND       PRES   REMARKS
BURLINGTON     MOSUNNY   80  67  64 W10       29.82F HX  82
FAIRFIELD *    PTSUNNY   77  64  65 W14G22    29.82F
FORT MADISON * MOSUNNY   81  68  65 SW9       29.84S HX  83
KEOKUK *       CLOUDY    81  66  61 W14G22    29.83S HX  83
OSKALOOSA *    CLOUDY    76  64  67 W16G24    29.84S
CENTERVILLE *    N/A     75  64  69 W16       29.89S
OTTUMWA        CLOUDY    78  64  61 W16       29.83S HX  80
WASHINGTON *   PTSUNNY   77  68  73 W13G21    29.83S
$$

ABBREVIATIONS USED IN REMARKS
   TC - TEMPERATURES IN CELSIUS
  WCI - WIND CHILL INDEX
   HX - HEAT INDEX
  VSB - VISIBILITY
$$





USA.gov is the U.S. government's official web portal to all federal, state and local government web resources and services.